Location: Maccacari
(45.1333°N, 11.1333°E)
Time: 10:30:17
(UTC+00:00)

Vanguard 2 - Pass Details

Date: 25 January 2021
Orbit: 552 x 2938 km, 32.9° (Epoch: 24 February)

Event Time Altitude Azimuth Distance (km) Brightness Sun altitude
Rises 19:07:18 0° 250° (WSW) 2,955 11.5 -30.6°
Reaches altitude 10° 19:10:10 10° 228° (SW) 2,252 10.4 -31.1°
Enters shadow 19:13:14 16° 191° (SSW) 2,101 9.8 -31.6°
Maximum altitude 19:13:23 16° 189° (S) 2,114 - -31.6°
Drops below altitude 10° 19:17:25 10° 153° (SSE) 2,938 - -32.3°
Sets 19:22:02 0° 135° (SE) 4,396 - -33.2°
